This is the latest recevied weather packets stored in our database for station/object W1SCW. If no packets are shown the sender has not sent any weather packets the latest 10 day(s).
| Time | Temp. | Humidity | Pressure | Rain* | Wind** | Luminosity | Snow |
|---|---|---|---|---|---|---|---|
| 1777852381 | 25.56° C | 42% | 1016.2 hPa | 0 mm | - | 92 W/m² | - |
| 1777852079 | 25.56° C | 39% | 1016.1 hPa | 0 mm | - | 77 W/m² | - |
| 1777851776 | 26.11° C | 36% | 1016.2 hPa | 0 mm | - | 71 W/m² | - |
| 1777851474 | 26.11° C | 37% | 1016 hPa | 0 mm | - | 129 W/m² | - |
| 1777851170 | 26.67° C | 36% | 1016.1 hPa | 0 mm | - | 140 W/m² | - |
| 1777850867 | 26.67° C | 36% | 1016.1 hPa | 0 mm | - | 146 W/m² | - |
| 1777850564 | 26.67° C | 36% | 1016.1 hPa | 0 mm | - | 169 W/m² | - |
| 1777850262 | 26.67° C | 35% | 1016.4 hPa | 0 mm | - | 191 W/m² | - |
| 1777849959 | 26.67° C | 35% | 1016.3 hPa | 0 mm | - | 196 W/m² | - |
| 1777849655 | 26.67° C | 36% | 1016.3 hPa | 0 mm | - | 225 W/m² | - |
| 1777849352 | 26.67° C | 35% | 1016.2 hPa | 0 mm | - | 245 W/m² | - |
| 1777849049 | 26.67° C | 36% | 1016.3 hPa | 0 mm | - | 272 W/m² | - |
| 1777848749 | 26.67° C | 35% | 1016.3 hPa | 0 mm | - | 306 W/m² | - |
| 1777848446 | 27.22° C | 36% | 1016.5 hPa | 0 mm | - | 279 W/m² | - |
| 1777848144 | 27.22° C | 37% | 1016.6 hPa | 0 mm | - | 321 W/m² | - |
| 1777847841 | 27.22° C | 35% | 1016.6 hPa | 0 mm | - | 330 W/m² | - |
| 1777847539 | 27.22° C | 35% | 1016.6 hPa | 0 mm | - | 368 W/m² | - |
| 1777847235 | 26.67° C | 37% | 1016.7 hPa | 0 mm | - | 383 W/m² | - |
| 1777846934 | 26.67° C | 36% | 1016.6 hPa | 0 mm | - | 209 W/m² | - |
| 1777846631 | 26.67° C | 37% | 1016.8 hPa | 0 mm | - | 187 W/m² | - |
| 1777846329 | 26.67° C | 35% | 1016.9 hPa | 0 mm | - | 306 W/m² | - |
| 1777846025 | 27.78° C | 34% | 1016.9 hPa | 0 mm | - | 307 W/m² | - |
| 1777845722 | 28.33° C | 35% | 1016.9 hPa | 0 mm | - | 449 W/m² | - |
| 1777845418 | 27.78° C | 35% | 1016.7 hPa | 0 mm | - | 476 W/m² | - |
| 1777845115 | 27.22° C | 37% | 1016.8 hPa | 0 mm | - | 505 W/m² | - |
* Rain latest hour (hover to see other rain measurements)
** Current wind speed in m/s (hover to see current wind gust speed)